Location: Aboncourt
(47.7710°N, 5.9826°E)
Time: 03:20:37
(UTC+00:00)

Cosmos 2369 Rocket - Pass Details

Date: 05 July 2020
Orbit: 830 x 851 km, 71.0° (Epoch: 03 August)

Event Time Altitude Azimuth Distance (km) Brightness Sun altitude
Rises 23:37:19 0° 334° (NNW) 3,384 6.5 -19.6°
Reaches altitude 10° 23:39:47 10° 337° (NNW) 2,447 5.6 -19.6°
Maximum altitude 23:45:22 65° 59° (ENE) 916 2.4 -19.6°
Enters shadow 23:48:45 24° 135° (SE) 1,658 3.3 -19.5°
